User: anonymous   Login
Location: Sevilla
(37.3933°N, 5.9839°W)
Time: 22:56:51
(UTC+02:00)
Language:

Courier 1B - Orbit

View from above orbital plane
View from above orbital plane
View from above satellite
View from above satellite

Ground track
Ground track

The orbit data is extracted from the following two-line orbital elements,

1 00058U 60013A   24177.23730531  .00000101  00000-0  25684-4 0  9999
2 00058  28.3257 202.9018 0164899 349.8496   9.8743 13.46378903136694
Epoch (UTC): 25 June 2024 05:41:43
Eccentricity: 0.0164899
inclination: 28.3257°
perigee height: 962 km
apogee height: 1208 km
right ascension of ascending node: 202.9018°
argument of perigee: 349.8496°
revolutions per day: 13.46378903
mean anomaly at epoch: 9.8743°
orbit number at epoch: 13669

The dashed part of the orbit path shows where the satellite is in the earth's shadow,  

DLR